Location: Molino di Ancona
(43.6167°N, 13.3667°E)
Time: 09:27:28
(UTC+00:00)

Cosmos 1975 - Pass Details

Date: 15 December 2019
Orbit: 543 x 561 km, 82.5° (Epoch: 18 January)

Event Time Altitude Azimuth Distance (km) Brightness Sun altitude
Rises 05:45:02 0° 172° (S) 2,701 6.8 -8.4°
Reaches altitude 10° 05:47:14 10° 167° (SSE) 1,811 6.0 -8.1°
Maximum altitude 05:51:03 46° 93° (E) 743 4.1 -7.4°
Drops below altitude 10° 05:54:52 10° 20° (NNE) 1,820 5.4 -6.8°
Sets 05:57:05 0° 15° (NNE) 2,717 6.2 -6.5°
